Miscellaneous Local Product
Issued by NWS North Platte, NE

Home | Current Version | Previous Version | Text Only | Print | Product List | Glossary On
Versions: 1 2 3 4 5 6 7 8 9 10 11 12 13 14 15 16 17 18 19 20 21 22 23 24 25 26 27 28 29 30 31 32 33 34 35 36 37 38 39 40 41 42 43 44 45 46 47 48 49 50
000
AXUS43 KLBF 151510
MISLBF


WESTERN AND NORTH CENTRAL NEBRASKA HOURLY WEATHER ROUNDUP
NATIONAL WEATHER SERVICE NORTH PLATTE NE
900 AM CST MON JAN 15 2018

NOTE: "FAIR" INDICATES FEW OR NO CLOUDS BELOW 12,000 FEET WITH NO
SIGNIFICANT WEATHER AND/OR OBSTRUCTIONS TO VISIBILITY.

NOTE: STATIONS NOT REPORTING VARIABLES SUCH AS SKY/WEATHER OR
PRESSURE ARE PROVIDED BY RAWS AND APRS NETWORKS AND ARE NOT UNDER
NATIONAL WEATHER SERVICE QUALITY CONTROL.

...OBSERVATIONS IN AND NEAR THE EASTERN PANHANDLE OF NEBRASKA...

CITY           SKY/WX    TMP DP  RH WIND       PRES   REMARKS
PINE RIDGE     CLEAR     -2 -10  69 N18G29    30.60R WCI -24
GORDON         FAIR      -3 -10  74 N13G21    30.55R WCI -22
CHADRON        PTCLDY    -8 -13  78 W5        30.63R WCI -19
ALLIANCE       CLEAR     -2  -8  76 N16       30.50R WCI -23
SIDNEY         CLEAR      7   1  76 N9        30.46R WCI  -7
CRESCENT LAKE    N/A     -1 -10  64 N14         N/A  WCI -20
$$

...OBSERVATIONS IN NORTHERN NEBRASKA AND FAR SOUTHERN SOUTH DAKOTA...

CITY           SKY/WX    TMP DP  RH WIND       PRES   REMARKS
WINNER         FAIR      -3 -11  68 NW22G32   30.64R WCI -27
VALENTINE      CLOUDY    -4 -12  68 NW18G30   30.60R HAZE    WCI -26
AINSWORTH      CLOUDY    -4  -9  80 N23G31    30.57R HAZE    WCI -29
O`NEILL        MOCLDY    -2  -7  80 NW20      30.56S WCI -24
THEDFORD       CLEAR     -2  -8  74 N17       30.55R WCI -23
BROKEN BOW     CLEAR      0  -8  69 N20       30.53R WCI -22
ORD            PTCLDY     0  -7  72 N18G29    30.55R WCI -21
ALBION         PTCLDY     1  -6  73 N18G25    30.54R WCI -20
VALENTINE NWR    N/A     -5 -12  71 N16G28      N/A  WCI -26
HALSEY           N/A     -4 -12  70 NW12G20     N/A  WCI -22
BUTTE            N/A     -3  -7  81 NW22        N/A  WCI -27
CHAMBERS         N/A     -1 -12  60 N9          N/A  WCI -16
EWING            N/A     -2  -6  80 N18         N/A  WCI -24
$$

...OBSERVATIONS IN SOUTHWEST NEBRASKA AND FAR NORTHEAST COLORADO...

CITY           SKY/WX    TMP DP  RH WIND       PRES   REMARKS
WRAY           CLOUDY    18   5  57 N13       30.49R WCI   4
HOLYOKE        FAIR      12   3  67 N9        30.50R WCI   0
IMPERIAL       CLEAR      8  -6  52 N17G24    30.53R WCI -10
OGALLALA       CLEAR      6  -6  57 NW13      30.54R WCI -10
NORTH PLATTE   CLEAR      2  -7  66 NW13      30.56R WCI -15
MCCOOK         PTCLDY     9  -1  64 NW13      30.57R WCI  -7
LEXINGTON      CLEAR      5  -3  71 NW14      30.57R WCI -13
STAPLETON        N/A     -2  -7  78 N6G13       N/A  WCI -14
GOTHENBURG       N/A      3  -4  73 NW9         N/A  WCI -12
CALLAWAY         N/A     -2  -7  80 NW22        N/A  WCI -25
$$

...OBSERVATIONS IN CENTRAL LINCOLN COUNTY AREA...

CITY           SKY/WX    TMP DP  RH WIND       PRES   REMARKS
N.P. AIRPORT   CLEAR      2  -7  66 NW13      30.56R WCI -15
N.P. DOWNTOWN    N/A      2  -6  70 NW3G12      N/A
N.P. HILLCREST   N/A      2  -5  72 NW16G23     N/A  WCI -17
$$

...SOME OBSERVATIONS FROM AROUND THE REGION...

CITY           SKY/WX    TMP DP  RH WIND       PRES   REMARKS
DENVER         FLURRIES  18  13  80 NE9       30.40R WCI   7
BERTHOUD PASS  LGT SNOW  12   1  62 NW29G41   30.18R WCI  -9
GRAND JUNCTION PTCLDY    21  20  96 E3        30.29S
LARAMIE        FLURRIES  16  15  96 N12       30.30R WCI   3
CHEYENNE       CLOUDY    13   3  64 N21G28    30.35R WCI  -5
CASPER         CLOUDY    11   3  70 NE7       30.49R WCI   0
BISMARCK       PTCLDY   -11 -19  68 NW23G30   30.75R WCI -38
RAPID CITY     MOCLDY    -4 -10  75 N28G39    30.64R BLWGSNOWWCI -30
PIERRE         CLEAR     -7 -13  75 NW23      30.70R WCI -33
SIOUX FALLS    PTCLDY    -5 -12  72 NW23G32   30.51R WCI -30
OMAHA          MOSUNNY    2  -6  69 NW24G36   30.53R WCI -21
GRAND ISLAND   CLEAR      2  -5  72 NW18      30.57R WCI -19
SCOTTSBLUFF    CLEAR      9  -2  61 NW17      30.51R WCI  -9
KANSAS CITY    CLOUDY    10   1  67 NW20G28   30.47R WCI  -9
HILL CITY      CLOUDY    14   2  58 N23G31    30.56R WCI  -5
WICHITA        CLOUDY    22  14  71 N21G31    30.48R WCI   6
DODGE CITY     CLOUDY    19  -2  39 N24G36    30.45R WCI   2
OKLAHOMA CITY  MOSUNNY   37  29  72 NE20G25   30.35R WCI  27
DALLAS         SUNNY     45  41  86 S13       30.29R
AMARILLO       CLOUDY    30  27  88 N26G37    30.28R WCI  16
$$




USA.gov is the U.S. government's official web portal to all federal, state and local government web resources and services.